EHI
0 0 0 0 0 0 0 0 0 0 0 0 0 0 0 0 0 1 1 1 0 0 0 0 0 0 0 0 0 0 0 0 0 0 0 0 0 0 0 0 0 0 0
0 0 0 0 0 0 0 0 0 0 0 0 0 0 0 0 0 0 0 0 0 0 0 0 0 0 0 0 0 0 0 0 0 0 0 0 0 0 0 0 0 0 0
0 0 0 0 0 0 0 0 0 0 0 0 0 0 0 0 0 0 0 0 0 0 0 0 0 0 0 0 0 0 0 0 0 0 0 0 0 0 0 0 0 0 0
0 0 0 0 0 0 0 0 0 0 0 0 0 0 0 0 0 0 0 0 0 0 0 0 0 0 0 0 0 0 0 0 0 0 0 0 0 0 0 0 0 0 0
0 0 0 0 0 0 0 0 0 0 0 0 0 0 0 0 0 0 0 0 0 0 0 0 0 0 0 0 0 0 0 0 0 0 0 0 0 0 0 0 0 0 0
0 0 0 0 0 0 0 0 0 0 0 0 0 0 0 0 0 0 0 0 0 0 0 0 0 0 0 0 0 0 0 0 0 0 0 0 0 0 0 0 0 0 0
0 0 0 0 0 0 0 0 0 0 0 0 0 0 0 0 0 0 0 0 0 0 0 0 0 0 0 0 0 0 0 0 0 0 0 0 0 0 0 0 0 0 0
0 0 0 0 0 0 0 0 0 0 0 0 0 0 0 0 0 0 0 0 0 0 0 0 0 0 0 0 0 0 0 0 0 0 0 0 0 0 0 0 0 0 0
0 0 0 0 0 0 0 0 0 0 0 0 0 0 0 0 0 0 0 0 0 0 0 0 0 0 0 0 0 0 0 0 0 0 0 0 0 0 0 0 0 0 0
0 0 0 0 0 0 0 0 0 0 0 0 0 0 0 0 0 0 0 0 0 0 0 0 0 0 0 0 0 0 0 0 0 0 0 0 0 0 0 0 0 0 0
0 0 0 0 0 0 0 0 0 0 0 0 0 0 0 0 0 0 0 0 0 0 0 0 0 0 0 0 0 0 0 0 0 0 0 0 0 0 0 0 0 0 0
0 0 0 0 0 0 0 0 0 0 0 0 0 0 0 0 0 0 0 0 0 0 0 0 0 0 0 0 0 0 0 0 0 0 0 0 0 0 0 0 0 0 0
0 0 0 0 0 0 0 0 0 0 0 0 0 0 0 0 0 0 0 0 0 0 0 0 0 0 0 0 0 0 0 0 0 0 0 0 0 0 0 0 0 0 0
0 0 0 0 0 0 0 0 0 0 0 0 0 0 0 0 0 0 0 0 0 0 0 0 0 0 0 0 0 0 0 0 0 0 0 0 0 0 0 0 0 0 0
0 0 0 0 0 0 0 0 0 0 0 0 0 0 0 0 0 0 0 0 0 0 0 0 0 0 0 0 0 0 0 0 0 0 0 0 0 0 0 0 0 0 0
0 0 0 0 0 0 0 0 0 0 0 0 0 0 0 0 0 0 0 0 0 0 0 0 0 0 0 0 0 0 0 0 0 0 0 0 0 0 0 0 0 0 0
0 0 0 0 0 0 0 0 0 0 0 0 0 0 0 0 0 0 0 0 0 0 0 0 0 0 0 0 0 0 0 0 0 0 0 0 0 0 0 0 0 0 0
0 0 0 0 0 0 0 0 0 0 0 0 0 0 0 0 0 0 0 0 0 0 0 0 0 0 0 0 0 0 0 0 0 0 0 0 0 0 0 0 0 0 0
0 0 0 0 0 0 0 0 0 0 0 0 0 0 0 0 0 0 0 0 0 0 0 0 0 0 0 0 0 0 0 0 0 0 0 0 0 0 0 0 0 0 0
0 0 0 0 0 0 0 0 0 0 0 0 0 0 0 0 0 0 0 0 0 0 0 0 0 0 0 0 0 0 0 0 0 0 0 0 0 0 0 0 0 0 0
0 0 0 0 0 0 0 0 0 0 0 0 0 0 0 0 0 0 0 0 0 0 0 0 0 0 0 0 0 0 0 0 0 0 0 0 0 0 0 0 0 0 0
0 0 0 0 0 0 0 0 0 0 0 0 0 0 0 0 0 0 0 0 0 0 0 0 0 0 0 0 0 0 0 0 0 0 0 0 0 0 0 0 0 0 0
0 0 0 0 0 0 0 0 0 0 0 0 0 0 0 0 0 0 0 0 0 0 0 0 0 0 0 0 0 0 0 0 0 0 0 0 0 0 0 0 0 0 0
0 0 0 0 0 0 0 0 0 0 0 0 0 0 0 0 0 0 0 0 0 0 0 0 0 0 0 0 0 0 0 0 0 0 0 0 0 0 0 0 0 0 0
0 0 0 0 0 0 0 0 0 0 0 0 0 0 0 0 0 0 0 0 0 0 0 0 0 0 0 0 0 0 0 0 0 0 0 0 0 0 0 0 0 0 0
0 0 0 0 0 0 0 0 0 0 0 0 0 0 0 0 0 0 0 0 0 0 0 0 0 0 0 0 0 0 0 0 0 0 0 0 0 0 0 0 0 0 0
Wind_Speed
6 6 6 6 5 5 5 5 5 5 5 5 5 6 6 6 6 6 6 6 7 6 5 6 6 5 4 4 4 4 4 4 6 3 2 2 3 3 2 1 1 1 1
5 6 6 6 6 6 6 5 5 6 5 6 6 6 7 7 6 7 7 7 7 7 6 7 6 5 6 4 4 5 4 4 7 7 3 3 3 2 2 2 2 1 1
5 6 6 6 6 6 6 5 6 6 6 6 7 7 7 7 7 7 7 7 7 7 6 7 6 6 6 5 5 5 5 5 5 6 4 2 2 2 2 2 2 2 1
5 6 6 6 5 5 5 6 6 6 6 6 7 7 7 7 7 7 7 7 8 8 7 7 7 7 6 6 6 6 6 7 6 6 4 3 2 2 2 2 2 2 2
5 6 5 5 5 5 6 6 6 6 7 6 7 7 7 6 6 6 6 7 7 8 8 8 8 9 9 6 5 6 6 6 5 5 4 3 2 2 2 1 1 1 1
5 5 5 5 6 6 6 6 6 6 6 7 7 7 7 6 8 10 7 7 7 7 7 7 8 9 11 11 10 8 6 6 5 4 3 3 2 1 1 1 1 1 1
4 5 5 5 5 5 6 6 6 6 6 7 6 7 7 7 10 10 10 7 7 7 6 6 6 7 8 7 10 11 9 7 5 4 4 3 2 2 2 2 1 1 0
4 5 4 5 5 5 6 6 6 5 5 5 6 6 6 8 10 10 10 8 7 7 6 6 6 6 6 6 7 7 6 5 4 3 3 2 2 2 2 2 1 0 1
4 4 4 4 4 5 5 5 4 5 5 5 5 6 6 7 9 9 8 6 6 7 6 6 6 6 7 7 7 6 6 5 4 4 2 2 2 4 4 3 2 1 1
3 3 4 4 4 4 4 4 4 4 5 5 6 6 6 6 8 8 7 4 5 4 5 5 7 6 6 6 5 5 5 3 3 3 4 3 2 2 4 2 2 1 0
3 4 5 4 4 4 4 4 5 5 5 6 6 6 6 6 7 8 7 4 3 4 4 3 4 6 6 6 4 3 2 1 2 3 2 2 2 2 1 1 2 2 2
4 5 5 4 4 4 5 5 5 5 5 5 5 5 5 5 6 7 8 7 4 3 2 2 2 5 5 5 4 4 4 3 2 3 3 2 2 2 1 1 2 3 4
5 5 5 5 5 4 4 4 4 4 4 3 3 3 3 3 4 8 8 8 6 3 2 2 3 4 5 5 6 6 4 3 2 3 2 2 2 2 2 2 1 1 2
5 4 4 5 5 5 4 3 3 3 3 3 2 2 2 2 3 3 3 3 5 4 3 4 5 6 5 4 4 4 3 2 2 2 1 1 2 2 2 2 2 2 2
5 4 4 4 4 4 4 3 3 1 1 2 1 1 1 1 2 2 2 2 2 2 2 2 3 3 3 3 3 3 3 3 2 2 1 2 2 2 2 2 1 1 2
4 3 3 3 3 3 3 3 6 4 4 3 3 3 1 1 1 2 3 4 3 2 3 3 2 2 2 2 2 2 2 2 2 2 2 2 2 2 2 2 2 1 2
4 3 2 2 2 2 2 2 2 4 6 5 3 2 1 1 1 2 3 4 4 3 3 2 1 1 1 1 1 1 1 2 1 1 1 1 1 1 2 2 2 2 2
3 3 3 2 1 1 1 1 1 1 1 2 2 1 1 1 2 1 1 2 3 3 1 1 0 0 0 0 0 1 1 1 1 1 1 1 1 1 1 2 2 3 3
3 2 2 2 1 1 1 1 1 1 0 1 1 2 2 1 2 2 1 1 0 0 0 0 0 0 1 1 0 0 0 1 1 1 1 1 1 1 1 2 2 3 2
1 2 2 2 1 1 1 1 1 1 1 1 1 1 1 1 1 1 1 0 1 1 1 1 1 1 1 1 1 1 0 0 1 1 1 1 1 1 2 3 3 3 3
1 1 2 1 1 1 1 2 2 1 2 2 3 3 2 1 1 2 1 1 2 2 2 2 2 1 1 1 1 1 1 1 1 1 1 1 2 2 2 3 3 3 3
2 1 1 1 1 1 2 2 2 2 3 3 3 2 3 3 2 3 3 3 3 3 2 2 2 2 2 2 2 2 2 2 2 2 2 2 2 2 3 3 3 3 3
2 1 1 1 1 1 1 1 2 2 3 3 3 3 2 3 3 3 4 4 3 3 2 3 3 3 2 2 3 3 3 3 3 3 3 3 3 3 3 3 4 4 4
2 1 1 1 1 1 2 2 2 3 4 4 4 3 3 3 4 4 4 3 3 3 3 3 4 5 5 4 3 3 3 3 3 3 4 4 4 3 3 4 4 5 5
2 2 2 2 2 2 2 3 3 3 4 4 4 4 4 4 4 4 4 3 4 4 5 4 4 5 7 7 6 5 4 5 5 3 4 4 5 5 4 5 4 4 4
2 2 2 2 2 3 3 3 4 4 4 4 4 4 4 4 4 4 4 4 4 4 5 4 6 7 7 6 7 7 6 6 6 5 4 4 5 5 5 4 5 5 5
Wind_Direction
34 36 37 35 41 53 55 52 54 48 41 46 49 52 53 53 57 63 60 58 64 59 56 67 64 66 76 80 88 93 96 108 119 109 97 97 95 90 80 73 91 88 93
36 42 41 37 43 52 51 48 55 56 48 48 51 53 54 53 54 62 63 58 60 58 57 62 60 70 72 73 83 88 93 98 123 123 103 84 82 90 78 71 60 68 61
46 50 47 43 45 50 49 46 51 57 53 51 55 54 54 54 56 59 65 64 60 56 55 63 63 74 75 76 80 85 89 93 99 114 104 83 81 79 74 59 55 38 37
54 54 50 44 46 51 52 50 51 56 56 53 56 55 53 54 58 61 66 67 63 57 54 58 63 71 79 83 85 88 94 94 97 102 101 89 79 67 84 75 61 37 27
59 58 52 49 51 54 56 54 55 56 56 54 58 55 49 50 52 62 66 70 66 61 54 52 61 71 72 78 94 99 102 102 102 103 103 96 88 87 84 64 78 40 39
63 62 56 55 56 55 57 59 60 57 55 55 54 57 52 48 53 62 71 71 66 63 58 51 56 60 66 70 80 87 101 115 118 113 114 120 121 120 118 114 109 84 56
62 62 59 59 60 56 64 64 61 59 59 56 51 57 55 47 57 65 68 72 66 58 56 55 56 52 61 72 70 68 64 75 108 133 134 145 151 161 146 123 122 122 208
62 56 55 63 65 63 66 65 60 59 60 56 52 52 56 48 57 69 72 69 66 57 53 55 62 52 57 77 79 70 61 53 64 101 139 162 174 168 164 140 133 142 289
67 60 60 70 72 69 70 67 66 70 64 59 54 52 55 45 54 69 75 73 66 54 48 49 59 61 56 73 81 76 64 44 51 68 109 141 176 179 163 143 138 111 19
74 71 68 74 80 78 75 73 70 74 75 74 63 51 53 48 50 66 74 78 70 57 46 42 49 57 57 68 81 82 69 36 32 52 56 52 71 123 169 175 169 164 194
80 78 77 72 74 76 70 70 80 80 75 69 64 51 47 44 48 60 70 77 79 68 52 35 30 41 57 63 75 81 94 95 62 68 62 50 53 66 96 173 200 199 206
79 77 74 67 66 74 74 73 78 86 82 69 61 52 40 32 41 55 66 73 79 75 53 21 14 32 54 64 69 79 93 93 82 71 61 42 28 14 353 318 232 226 236
82 79 78 72 61 64 77 81 76 78 87 82 72 61 41 31 35 47 55 57 58 64 34 15 33 54 60 59 60 69 76 76 76 67 49 19 346 323 319 324 346 273 248
91 82 79 79 67 57 57 66 78 82 92 99 93 77 49 31 25 23 26 33 38 43 32 35 50 62 61 57 51 48 47 55 72 62 24 350 342 354 10 5 5 357 350
92 87 81 79 81 69 57 47 59 55 161 142 140 133 110 46 344 2 23 12 4 7 34 46 44 40 40 37 40 41 39 44 49 34 22 18 14 15 13 4 7 1 352
99 93 92 91 84 82 78 55 42 50 61 103 138 142 120 183 328 12 12 9 12 68 80 64 50 46 43 32 29 26 27 28 23 21 25 22 15 8 8 11 6 353 337
120 121 114 111 109 102 88 81 47 25 43 55 72 115 140 205 311 349 12 31 45 86 82 71 59 44 28 17 15 14 7 3 359 8 19 10 2 7 9 4 358 342 329
122 133 134 139 146 146 130 109 99 75 28 4 4 355 316 302 313 330 29 63 49 50 72 81 41 9 337 336 346 349 341 342 354 7 8 360 358 358 1 354 348 334 322
134 137 139 146 160 165 154 148 140 133 79 318 328 339 352 357 11 16 54 95 109 11 19 265 273 271 253 248 258 271 303 331 350 357 1 357 351 339 340 339 329 322 314
136 161 155 154 163 160 165 182 198 218 255 278 284 289 327 17 5 360 28 201 225 248 255 255 259 252 240 231 227 227 256 319 344 338 333 337 334 323 326 325 322 319 312
134 139 146 148 178 195 205 218 222 226 241 257 264 252 219 227 259 268 269 253 244 250 251 246 247 241 222 216 220 227 228 261 281 284 292 304 309 310 309 307 305 304 306
144 147 160 199 230 228 223 220 217 229 242 252 267 274 229 222 240 249 253 253 246 241 238 233 238 238 234 228 224 224 233 245 255 266 275 283 288 295 301 303 306 307 307
149 163 185 226 241 248 243 234 231 241 249 253 258 262 248 238 244 247 251 253 246 238 226 217 226 235 232 226 226 227 235 245 249 249 261 272 279 286 293 298 304 307 307
169 194 224 248 250 248 256 260 254 251 253 255 254 251 250 249 250 250 251 249 244 241 230 222 227 233 233 228 226 228 235 243 244 244 247 259 271 279 282 285 291 296 297
187 212 232 245 254 258 264 268 265 262 258 255 253 251 251 250 252 253 248 243 241 242 239 229 228 234 236 235 234 235 231 232 235 238 242 249 262 270 275 279 284 290 291
212 230 243 250 251 250 253 264 268 265 260 258 253 248 247 249 251 250 245 239 239 240 241 234 231 233 235 238 240 238 234 236 238 236 237 247 257 263 270 272 281 283 286